Theta_e
314 313 313 313 312 313 315 316 318 321 322 324 322 322 322 321 321 316 309 316 318 331 326 320 316 314 312 306 307 305 294 291 294 294 296 302 300 304 306 301 303 304 312 320 327
313 313 313 313 313 312 313 315 316 319 320 322 323 322 321 321 314 308 318 326 328 330 323 313 311 311 304 303 303 299 293 295 301 301 299 302 302 304 302 301 300 307 314 324 326
314 313 313 312 312 312 312 312 315 316 318 321 323 322 321 319 306 307 324 327 328 328 323 317 313 309 302 302 301 299 295 301 303 305 304 304 303 306 301 299 300 301 310 314 321
314 313 313 312 312 312 311 311 312 314 316 319 322 321 320 314 293 314 329 329 329 326 318 314 311 304 300 298 302 296 301 303 305 306 304 302 305 302 303 302 306 306 306 308 313
313 313 312 312 311 311 311 310 312 314 315 317 320 320 315 303 304 318 328 328 324 322 316 311 307 304 298 299 301 296 299 302 304 304 302 303 302 302 303 307 307 305 307 306 307
311 311 311 311 310 310 310 310 311 313 314 317 318 320 308 295 312 318 322 322 321 319 316 314 309 307 300 299 298 300 301 301 302 302 302 301 300 300 301 305 304 305 304 304 306
311 310 310 310 310 310 310 310 311 311 313 315 316 315 305 300 310 317 320 319 321 319 313 316 315 305 304 300 304 301 297 298 299 300 299 301 298 297 303 303 302 303 303 304 304
310 309 309 309 309 309 309 310 310 311 312 313 315 312 299 312 311 310 311 311 316 317 318 319 318 309 304 303 300 297 295 290 297 299 300 300 292 298 302 299 300 301 302 303 305
309 309 308 309 308 308 309 309 310 311 312 313 310 306 296 314 306 309 310 309 314 316 317 320 315 306 303 295 291 292 286 289 293 299 299 296 291 299 303 300 298 299 299 301 303
308 308 308 308 308 308 309 309 309 309 309 310 311 298 301 299 306 308 307 311 311 312 310 309 306 300 299 294 285 287 287 287 289 294 295 293 293 297 298 298 298 297 298 299 301
308 307 307 308 308 308 305 298 292 293 301 295 296 298 301 305 308 306 307 307 310 305 298 304 297 293 296 298 294 293 290 287 290 295 290 290 289 292 296 295 296 298 298 298 300
307 307 307 307 308 308 302 294 293 298 290 299 300 300 304 305 299 303 308 302 302 295 297 297 290 296 299 298 295 292 290 287 290 293 290 289 289 292 294 295 296 297 299 299 299
306 306 307 307 308 303 297 297 303 301 290 293 298 300 301 304 297 298 304 302 298 294 293 290 292 297 295 294 292 288 285 285 287 289 288 287 286 288 291 293 295 297 299 299 299
306 306 306 307 300 300 297 303 303 303 284 289 294 300 302 303 296 304 307 302 298 294 294 291 295 294 292 291 290 284 290 290 288 285 279 286 277 283 288 290 291 291 292 295 296
308 308 308 307 298 295 301 303 303 298 273 291 295 307 303 298 297 299 306 302 293 294 294 288 291 290 289 290 292 288 292 289 287 282 280 281 278 281 286 287 289 291 292 292 294
308 308 309 305 303 301 305 304 299 278 273 287 296 295 294 295 296 299 300 302 301 296 294 290 295 293 291 293 293 293 288 286 284 280 271 279 279 279 283 286 287 289 291 294 295
309 310 308 307 298 303 304 296 277 273 285 285 290 294 292 291 292 295 294 291 287 284 284 289 289 292 294 289 291 289 281 270 271 269 272 281 279 281 287 291 290 291 291 291 292
310 308 305 306 307 303 299 286 273 281 282 292 292 293 289 291 292 293 291 287 290 287 282 280 277 289 292 289 286 285 282 272 270 273 274 281 277 282 288 290 290 291 290 293 293
307 299 301 305 305 301 291 279 280 283 288 291 291 287 288 290 291 291 289 288 289 289 281 278 281 292 292 292 290 284 277 285 276 275 269 276 279 284 288 289 291 291 292 293 294
296 295 299 306 304 298 287 284 286 290 294 292 284 287 284 287 287 288 288 290 289 291 291 287 279 291 293 295 293 287 288 276 272 264 269 274 276 279 284 287 288 290 291 293 295
296 290 301 305 302 292 282 285 288 296 296 291 287 286 287 286 287 286 286 290 292 291 291 289 282 286 291 285 284 285 283 282 280 277 270 272 277 284 285 287 288 290 292 298 298
291 287 301 305 287 289 285 286 294 294 297 294 291 290 287 288 287 286 285 290 294 293 288 291 285 279 283 288 290 288 285 283 273 273 275 273 277 289 287 288 291 294 297 298 299
289 289 302 301 283 286 288 290 294 294 293 294 290 292 291 287 284 287 289 295 296 293 290 290 283 274 280 283 287 282 286 286 283 282 271 274 278 289 289 292 294 298 299 296 297
291 281 288 295 293 289 289 289 291 297 294 293 291 293 290 289 289 287 287 293 296 296 299 295 284 279 275 278 282 277 284 285 282 275 276 277 282 287 290 292 297 299 300 296 300
290 286 290 287 292 292 292 291 291 290 294 294 292 292 291 287 287 287 289 289 293 296 293 290 281 283 284 285 285 283 283 284 279 284 279 283 284 288 292 295 298 299 299 299 300
291 290 294 292 294 290 291 290 290 291 292 291 290 293 292 288 289 287 289 287 287 289 287 288 277 283 275 284 284 280 285 285 285 286 286 287 286 294 297 300 295 295 294 293 294
297 297 295 289 287 286 288 290 291 293 295 295 293 292 291 292 293 292 293 292 291 288 287 289 285 277 274 283 283 278 284 286 286 287 289 285 290 296 296 296 292 290 289 289 292
Wind_Speed
19 20 19 17 18 17 19 19 19 20 18 15 12 10 10 7 7 4 12 9 12 16 4 3 4 5 3 3 3 4 3 5 6 8 5 2 3 6 2 3 1 1 7 6 10
17 18 20 18 20 17 18 20 19 20 19 21 13 11 9 6 6 13 12 18 19 21 5 5 6 6 3 5 3 5 5 8 5 5 3 3 2 5 6 3 3 4 4 5 8
21 19 19 20 19 17 18 19 20 19 19 20 14 10 5 2 6 10 20 26 20 19 12 5 2 4 4 3 4 5 6 8 4 5 2 5 5 4 2 4 3 1 3 4 4
19 20 18 20 19 21 20 20 18 20 19 21 16 10 6 3 9 3 6 25 22 12 10 6 4 4 6 6 5 3 7 6 3 5 2 3 3 3 4 6 3 2 1 5 7
21 19 19 20 20 19 19 19 20 19 18 18 19 13 6 5 10 8 7 20 15 9 10 9 6 5 7 7 4 3 3 4 6 7 4 5 6 6 7 10 10 2 5 7 6
17 18 18 18 19 19 19 20 18 18 18 17 19 14 5 10 7 8 3 11 8 9 7 7 6 7 5 4 8 4 8 6 4 4 4 5 6 5 3 7 11 7 7 8 8
23 21 19 19 18 19 18 17 19 19 19 19 21 10 9 15 5 5 6 7 7 9 6 7 4 4 4 3 5 2 5 2 4 3 4 3 15 9 9 10 10 15 10 8 9
21 19 18 17 18 16 15 18 17 18 18 19 14 9 5 7 12 6 4 4 7 7 10 5 3 1 3 1 3 5 4 1 4 2 6 9 20 3 10 7 11 11 14 13 10
19 18 17 17 16 14 18 19 21 20 18 15 9 7 4 4 6 9 4 4 7 4 6 7 4 1 2 6 3 1 4 5 6 7 6 9 3 10 16 11 9 12 10 12 13
19 17 17 18 13 13 17 21 19 15 7 5 3 4 5 6 6 6 5 3 4 12 6 4 4 3 2 4 7 6 4 3 5 4 2 7 9 10 6 7 10 10 10 11 12
19 19 18 19 15 9 9 5 6 3 3 4 6 5 3 3 7 6 5 5 5 4 4 4 3 7 5 5 3 4 2 2 4 4 5 7 6 12 10 7 10 15 13 14 15
19 18 19 17 16 14 2 2 2 2 3 10 8 15 11 6 10 9 8 6 6 5 6 3 2 6 10 6 6 1 3 4 6 1 3 7 16 14 14 13 16 21 21 18 13
20 18 16 16 16 4 2 6 4 3 2 2 9 11 6 4 4 12 9 5 8 7 4 5 1 7 6 6 7 4 3 2 4 6 1 8 10 6 7 7 10 17 19 15 16
21 18 17 17 6 2 6 3 5 2 2 3 8 6 5 6 4 4 6 5 4 9 7 3 2 4 4 3 4 2 1 3 3 4 4 5 8 6 8 12 7 8 8 11 12
21 20 19 15 4 1 1 4 7 1 5 9 6 12 3 1 13 6 3 3 5 8 6 4 5 3 4 3 4 3 4 4 2 3 4 3 2 11 5 7 6 6 8 8 10
25 24 21 8 3 6 5 3 0 2 3 5 7 10 8 5 3 7 3 4 3 6 5 2 2 3 4 4 4 7 5 6 4 3 3 4 5 8 4 4 2 4 9 10 8
28 23 13 2 1 4 7 2 3 1 2 4 8 14 12 5 5 7 6 3 5 6 4 2 2 1 3 7 3 5 6 3 5 3 7 3 3 12 9 12 4 8 9 9 8
23 9 5 4 3 8 3 1 3 4 2 5 13 14 6 8 11 7 6 4 3 6 5 5 2 6 2 5 6 4 7 6 5 3 5 4 6 8 4 6 3 6 4 8 11
12 4 4 6 4 3 3 2 1 4 4 10 15 8 5 5 6 5 2 5 3 3 6 5 1 3 4 3 6 3 2 4 3 4 3 5 7 10 3 5 7 8 9 10 10
2 2 4 6 4 5 2 5 3 4 7 7 5 1 4 4 5 3 7 4 3 6 2 5 5 2 2 4 1 4 6 4 4 1 4 5 5 7 5 4 2 7 7 8 8
3 4 4 6 3 3 2 3 4 6 6 2 3 5 6 6 6 3 9 1 7 4 4 2 5 1 4 4 7 4 2 1 4 4 4 4 7 7 4 4 4 7 7 13 14
2 4 3 3 3 1 3 6 8 6 6 4 5 7 4 4 4 4 7 3 8 6 6 1 5 4 6 2 4 4 6 6 5 3 2 3 11 6 4 3 6 16 13 9 12
2 1 1 2 2 2 3 3 4 7 9 3 4 3 5 5 6 5 4 5 8 8 8 4 1 2 2 5 3 3 5 5 4 2 7 3 9 3 7 14 19 15 13 7 7
1 2 4 1 2 1 4 3 2 3 4 5 5 13 5 3 3 4 3 4 3 3 9 7 3 5 6 5 4 3 5 7 7 3 4 10 16 19 20 18 18 17 16 6 10
2 1 2 3 3 2 3 6 6 6 7 8 7 3 5 3 4 4 4 3 6 4 4 5 4 1 4 6 3 4 6 8 9 18 7 14 13 22 20 19 16 8 9 11 13
2 3 3 2 2 4 3 4 6 5 4 3 5 4 7 4 2 5 6 4 4 1 3 2 2 2 6 5 7 6 10 11 13 15 15 23 26 21 19 10 7 9 12 14 14
2 3 1 4 2 0 2 2 5 3 8 7 6 6 9 3 4 3 5 6 7 7 3 5 3 2 5 3 3 6 12 15 6 6 8 10 11 6 11 7 6 10 11 13 17
Wind_Direction
331 332 330 330 326 324 319 319 320 318 314 268 250 247 256 261 272 252 241 222 205 241 152 143 187 210 112 240 199 128 121 213 227 168 235 315 26 294 287 233 28 15 160 186 153
326 323 323 326 324 325 319 320 311 315 318 318 236 241 251 265 259 249 233 220 224 222 221 187 189 173 171 195 221 154 168 219 207 206 281 294 359 310 350 305 25 14 35 93 137
318 319 318 318 318 314 312 309 316 308 302 299 246 225 236 263 266 245 222 218 215 219 221 215 164 173 183 157 207 198 195 223 251 274 304 330 331 304 314 269 40 333 166 145 167
314 315 315 315 314 314 310 312 303 307 302 309 290 192 192 200 229 223 271 199 208 177 163 171 159 184 183 189 211 207 202 205 217 273 296 270 275 290 242 243 252 202 303 314 253
321 317 318 316 312 311 308 304 297 302 296 300 308 172 153 212 243 283 284 181 191 172 176 182 173 171 181 176 233 217 262 225 247 269 244 270 243 234 231 273 289 217 206 239 255
317 312 313 304 310 309 307 303 297 298 293 291 304 166 141 229 261 257 156 166 162 166 179 169 192 208 206 186 171 204 209 251 263 238 242 249 250 204 255 245 291 293 265 222 256
322 325 315 313 313 308 310 308 302 296 290 289 301 183 161 216 300 176 156 177 172 179 174 194 206 189 165 131 193 177 166 293 239 229 253 1 271 217 227 251 252 283 279 259 222
325 323 314 319 317 318 316 313 303 289 288 285 281 212 212 206 253 278 164 178 196 187 207 200 121 224 167 211 115 128 69 211 263 253 245 163 251 218 241 236 260 259 274 274 242
328 325 321 319 320 322 324 313 297 289 286 290 292 171 211 134 188 222 161 190 129 89 121 113 97 131 108 135 74 32 165 204 303 218 225 180 279 248 238 229 248 262 261 264 268
329 323 319 320 322 328 328 319 286 285 270 42 94 84 269 198 155 178 199 202 134 124 119 119 142 115 120 142 196 192 184 211 230 285 255 255 255 267 277 236 233 248 253 258 255
333 331 324 320 327 330 335 347 5 28 221 168 189 241 164 161 127 176 173 145 117 118 132 156 160 169 143 202 135 156 137 232 260 294 320 269 265 272 271 272 266 261 247 249 249
329 329 324 321 322 317 358 299 265 169 306 226 270 264 293 151 157 180 144 159 137 133 121 108 212 194 171 189 212 245 282 287 285 245 306 299 288 270 259 247 233 246 254 251 255
329 327 324 326 321 340 250 243 163 170 303 318 223 243 187 116 121 165 165 150 146 132 146 141 149 158 156 170 189 159 163 219 258 322 8 317 276 260 283 266 251 244 248 251 246
332 328 324 328 330 317 295 235 170 104 127 191 190 204 261 135 71 107 194 141 146 151 135 162 253 140 149 137 120 115 126 164 47 34 268 40 290 300 286 299 281 271 248 245 240
326 318 309 303 260 258 351 142 144 102 131 148 171 152 153 120 140 204 40 25 143 130 110 225 160 129 105 179 133 165 98 91 79 68 3 301 190 275 309 302 305 311 309 263 246
327 318 313 293 182 211 135 139 210 54 189 185 125 157 130 124 94 126 99 37 88 112 78 94 69 100 160 59 127 125 72 38 56 71 348 237 165 286 249 248 340 325 331 314 288
320 313 311 279 343 128 127 134 57 348 312 136 138 143 123 121 118 134 144 114 132 121 115 45 30 78 95 90 46 90 67 357 355 1 230 155 150 251 276 274 325 313 326 349 358
337 8 346 8 103 120 116 42 88 235 257 167 135 118 88 124 136 134 131 118 46 82 107 136 302 174 185 158 173 157 142 156 213 226 285 298 232 251 255 299 10 79 30 16 5
352 344 35 8 66 52 30 13 301 243 175 127 112 104 112 71 116 130 136 156 169 155 126 121 274 113 155 131 131 199 111 194 82 24 38 260 295 293 103 40 35 30 24 4 350
49 21 25 327 32 44 355 336 5 293 99 116 80 102 105 116 114 129 152 198 199 181 174 193 97 153 156 94 97 130 154 63 355 102 269 278 275 245 277 53 50 7 350 326 320
53 62 327 343 25 79 291 332 309 118 118 38 116 100 94 122 121 108 179 199 178 184 172 118 97 320 122 203 182 142 187 177 120 158 188 306 266 212 221 140 345 322 305 331 329
64 62 290 9 40 10 293 316 326 189 264 288 87 103 112 112 131 134 179 258 188 154 160 69 110 166 208 265 188 160 192 166 131 246 233 155 268 276 294 232 299 326 325 313 301
42 333 195 93 35 323 263 294 269 211 240 115 114 133 137 125 138 118 114 341 182 159 153 163 92 95 66 6 12 184 198 188 128 114 205 137 263 352 320 318 315 312 316 299 307
45 22 325 335 133 5 328 340 299 296 30 75 96 127 99 95 58 122 102 30 59 115 145 95 144 166 181 200 147 196 190 194 157 177 198 227 279 289 292 295 312 309 302 272 297
22 11 296 350 27 304 359 324 31 22 16 42 93 126 125 119 108 103 106 84 24 47 69 109 184 215 249 250 205 224 220 198 194 230 234 273 277 281 293 306 302 337 336 323 311
26 354 329 294 324 353 339 341 29 2 28 80 94 73 88 75 260 155 123 128 183 36 104 41 168 40 293 267 220 241 235 225 232 246 255 264 270 277 282 324 352 341 334 321 314
339 317 301 303 302 43 272 314 359 36 20 43 127 87 64 30 39 57 111 138 158 143 133 133 139 86 272 339 300 284 223 209 203 219 221 239 259 306 318 335 6 341 339 334 321